GW6108 Weather Reports


Display with metric or nautical units.
time (UTC)temp
F
wind
direction
speed
MPH
gust
MPH
rain 1hr
in
rain 24hr
in
rain mn
in
humidity
%
barometer
mb
20260502221503 49 157 0.0 1.0 0.01 0.20 0.20 97 1010.6
20260502220003 49 174 1.0 4.0 0.01 0.20 0.20 97 1010.7
20260502214503 49 162 0.0 1.0 0.02 0.20 0.20 97 1010.7
20260502213218 49 123 0.0 2.0 0.02 0.20 0.20 97 1010.9
20260502211503 50 101 1.0 3.0 0.02 0.20 0.20 95 1011.0
20260502210215 50 123 1.0 2.0 0.04 0.20 0.20 95 1011.2
20260502204503 50 62 0.0 2.0 0.05 0.19 0.19 95 1011.2
20260502203003 50 95 0.0 2.0 0.04 0.18 0.18 95 1011.3
20260502201503 50 90 1.0 2.0 0.04 0.17 0.17 95 1011.4
20260502200003 50 0 0.0 0.0 0.03 0.16 0.16 95 1011.4
20260502194503 50 0 0.0 0.0 0.03 0.14 0.14 94 1011.2
20260502193003 51 0 0.0 0.0 0.06 0.14 0.14 94 1011.3
20260502191503 51 85 0.0 2.0 0.06 0.13 0.13 94 1011.2
20260502190003 52 0 0.0 0.0 0.07 0.13 0.13 92 1011.5
20260502184503 52 0 0.0 0.0 0.07 0.11 0.11 92 1011.6
20260502183003 53 0 0.0 0.0 0.06 0.09 0.09 92 1011.9
20260502181503 53 161 0.0 2.0 0.05 0.07 0.07 91 1012.1
20260502163003 59 0 0.0 0.0 0.00 0.01 0.01 76 1012.5
20260502161503 60 0 0.0 2.0 0.00 0.01 0.01 72 1012.6
20260502151503 60 141 2.0 5.0 0.00 0.01 0.01 66 1013.1
20260502123003 63 202 3.0 7.0 0.00 0.06 0.01 61 1014.9
20260502121503 61 187 2.0 6.0 0.00 0.06 0.01 61 1015.0
20260502114503 61 189 2.0 7.0 0.00 0.06 0.01 62 1015.6
20260502113003 60 167 3.0 7.0 0.00 0.06 0.01 67 1015.5
20260502111503 62 183 3.0 9.0 0.00 0.06 0.01 61 1015.8
20260502110216 61 213 4.0 8.0 0.00 0.06 0.01 64 1016.0
20260502104503 59 218 3.0 7.0 0.00 0.06 0.01 70 1016.3
20260502103004 58 253 3.0 8.0 0.00 0.06 0.01 71 1016.4
20260502091503 56 236 3.0 10.0 0.00 0.06 0.01 79 1017.0
20260502071503 48 0 0.0 0.0 0.00 0.06 0.01 100 1017.3
20260502070003 47 0 0.0 0.0 0.00 0.06 0.01 100 1017.2
20260502064503 46 0 0.0 0.0 0.00 0.06 0.01 100 1017.4
20260502063003 44 0 0.0 0.0 0.00 0.06 0.01 100 1017.4
20260502061503 43 0 0.0 0.0 0.00 0.06 0.01 99 1017.2
20260502060003 43 0 0.0 0.0 0.00 0.06 0.01 99 1017.2
20260502054503 42 0 0.0 0.0 0.00 0.06 0.01 99 1017.2
20260502053003 42 0 0.0 0.0 0.01 0.06 0.01 99 1017.2
20260502051503 42 0 0.0 0.0 0.01 0.06 0.01 99 1017.1
20260502050003 42 0 0.0 0.0 0.01 0.06 0.01 97 1017.2
20260502044503 42 0 0.0 0.0 0.01 0.06 0.01 97 1017.2
20260502043003 43 0 0.0 0.0 0.00 0.06 0.00 97 1017.2
20260502041503 44 243 0.0 2.0 0.00 0.06 0.00 99 1017.3
20260502040003 44 252 1.0 3.0 0.00 0.06 0.00 99 1017.4
20260502034503 44 259 3.0 6.0 0.00 0.06 0.00 99 1017.5
20260502033003 44 271 1.0 7.0 0.00 0.06 0.00 99 1017.5
20260502031503 45 268 3.0 7.0 0.00 0.06 0.00 99 1017.7
20260502030003 45 253 3.0 4.0 0.00 0.06 0.00 99 1017.8
20260502024719 45 260 3.0 4.0 0.00 0.06 0.00 99 1017.8
20260502023003 46 256 3.0 6.0 0.00 0.06 0.00 99 1017.8
20260502021716 46 257 6.0 9.0 0.00 0.06 0.00 99 1018.0
20260502020003 46 251 3.0 6.0 0.00 0.06 0.00 99 1018.0
20260502014503 46 256 4.0 6.0 0.00 0.06 0.00 99 1018.1
20260502013003 46 255 2.0 2.0 0.00 0.06 0.00 99 1018.3
20260502011503 47 256 3.0 3.0 0.00 0.06 0.00 99 1018.4
20260502010003 47 256 3.0 4.0 0.00 0.06 0.00 99 1018.5
20260502004718 47 258 4.0 8.0 0.00 0.06 0.00 99 1018.7
20260502003003 47 258 7.0 8.0 0.00 0.06 0.00 99 1018.8
20260502001503 47 273 3.0 5.0 0.00 0.06 0.00 97 1018.8
20260502000003 48 260 2.0 3.0 0.00 0.06 0.00 99 1018.8
20260501234503 48 247 2.0 3.0 0.00 0.06 0.06 97 1019.0
20260501233003 48 256 3.0 4.0 0.00 0.06 0.06 97 1019.0
20260501231715 48 0 0.0 0.0 0.00 0.06 0.06 97 1019.1
20260501230218 48 0 0.0 0.0 0.00 0.06 0.06 97 1019.1
20260501224503 49 0 0.0 0.0 0.00 0.06 0.06 97 1019.1
20260501223003 49 0 0.0 0.0 0.00 0.06 0.06 97 1019.0
20260501221719 49 0 0.0 0.0 0.00 0.06 0.06 97 1019.0